OPS 4682 DEB, 52783

Orbit data source: Space-Track

OPS 4682 DEB, 52783 is space debris in LEO originally from a launch on Sat, 03 Apr 1965 UTC launched from the Air Force Western Test Range (AFWTR). Debris objects in space refer to the collection of defunct objects orbiting the Earth. Examples of debris include non-operational satellites, rocket bodies, and fragments generated from explosions, collisions, or faulty payload assembly.

Loading next visibility...
Identifier
52783, 1965-027GZ
Orbit
LEO
Country
Flag of USUS
Related business
Manufacturer
Unknown
Mission
Spacecraft
Bus & Motor
Unknown
Mass
Unknown
Launch date (UTC)
1965-04-03 (61 years ago)
Launch vehicle
Unknown
Launch site
Air Force Western Test Range (AFWTR)
Object type
Payload
Rocket body
Debris
Shape & HBR
Unknown
Radar Cross Section
Small (<0.1 m²)

Expand to show TLE details & history
Last TLE update: 1 day ago

TLE from 1 day ago
0 OPS 4682 DEB
1 52783U 65027GZ  26207.71944865  .00000039  00000-0  11100-3 0  9994
2 52783  90.2385   9.3138 0033462  84.7362 275.7574 12.95664601539808
Epoch: 2026-07-26T17:16Z
TLE epoch observation values (Epoch: 2026-07-26T17:16:00.363Z)
Latitude
-0.00007°
Longitude
165.89895°
Altitude
1,279.512 km
Speed
7.217 km/s
True Right ascension
00h 37m 15s
True Declination
0° 00' 00"
Sunlit
Object was in daylight at epoch
Visualization orbit readout
Latitude
Unknown
Longitude
Unknown
Altitude
Unknown
Speed
Unknown
Apparent Right ascension
Unknown
Apparent Declination
Unknown
Sunlit
N/A
Visualization observer readout
Local Sidereal Time
14:10:16
Azimuth
Unknown
Elevation
Unknown
Doppler factor
Unknown
Orbital elements
Apogee altitude
1,301.867 km
Perigee altitude
1,250.641 km
Semi-major axis
7,654.391 km
Eccentricity
0.00335
Inclination
90.2385°
RAAN
9.3138°
Arg. of periapsis
84.7362°
True anomaly
275.37573°
Mean anomaly
275.7574°
Eccentric anomaly
275.56658°
Mean motion
3.24099 °/min
Orbital period
111.08 mins
BSTAR
0.000111
Loading maneuver chart data...
Computing Atmospheric mass density...
Loading historical data...
Loading historical data...
Loading historical data...
Loading historical data...
Loading historical data...
Loading historical data...
Loading historical data...

Documentation

Showing up to 5 results
|